KQA763 FAOR-HKJK

Flight info

Callsign KQA763
Flight time N/A
Altitude 41000
Route VASUR3A VASUR UZ23 IMKUP UQ6 GWV UP312 VMV UR409 USUBI UM315 EVATO EVATO2P
Aircraft B788/H-SDE1E2E3FGHIJ2J3J4J5M1RWXY/LB1D1

Departure

Time N/A
Airport O.R. Tambo International Airport (FAOR)

Arrival

Time 2026-05-06 17:54
Airport Jomo Kenyatta International Airport (HKJK)
Time Latitude Longitude Altitude Speed Heading
2026-05-06 17:54 -1.31577 36.93816 5299 ft 24 kts 234°
2026-05-06 17:54 -1.31625 36.93750 5301 ft 25 kts 233°
2026-05-06 17:54 -1.31684 36.93669 5302 ft 18 kts 233°
2026-05-06 17:54 -1.31768 36.93555 5305 ft 16 kts 234°
2026-05-06 17:55 -1.31844 36.93451 5308 ft 16 kts 234°
2026-05-06 17:55 -1.31918 36.93351 5312 ft 16 kts 233°
2026-05-06 17:55 -1.32025 36.93208 5315 ft 17 kts 233°
2026-05-06 17:55 -1.32103 36.93102 5317 ft 18 kts 233°
2026-05-06 17:56 -1.32188 36.92987 5319 ft 19 kts 233°
2026-05-06 17:56 -1.32269 36.92873 5321 ft 18 kts 234°
2026-05-06 17:56 -1.32355 36.92754 5322 ft 19 kts 234°
2026-05-06 17:56 -1.32435 36.92644 5322 ft 17 kts 234°
2026-05-06 17:57 -1.32515 36.92534 5322 ft 16 kts 234°
2026-05-06 17:57 -1.32612 36.92401 5322 ft 18 kts 234°
2026-05-06 17:57 -1.32663 36.92359 5322 ft 16 kts 187°
2026-05-06 17:57 -1.32723 36.92376 5321 ft 18 kts 158°
2026-05-06 17:58 -1.32774 36.92382 5321 ft 12 kts 172°
2026-05-06 17:58 -1.32815 36.92393 5321 ft 10 kts 160°
2026-05-06 17:58 -1.32848 36.92407 5321 ft 10 kts 156°
2026-05-06 17:58 -1.32866 36.92415 5320 ft 5 kts 156°
2026-05-06 17:59 -1.32875 36.92419 5320 ft 0 kts 155°
2026-05-06 17:59 -1.32875 36.92420 5321 ft 0 kts 155°
2026-05-06 17:59 -1.32875 36.92419 5320 ft 0 kts 155°